Regional Weather Roundup
Issued by NWS

Home | Current Version | Previous Version | Text Only | Print | Product List | Glossary On
Versions: 1 2 3 4 5 6 7 8 9 10 11 12 13 14 15 16 17 18 19 20 21 22 23 24 25 26 27 28
000
ASUS45 KPSR 240310
RWRAZ

ARIZONA HOURLY REGIONAL WEATHER ROUNDUP
NATIONAL WEATHER SERVICE PHOENIX AZ
800 PM MST MON JAN 23 2017

NOTE: FAIR INDICATES FEW OR NO CLOUDS BELOW 12,000 FEET WITH NO
SIGNIFICANT WEATHER AND/OR OBSTRUCTIONS TO VISIBILITY.

AZZ001>003-036-240400-
NORTHWEST ARIZONA

CITY           SKY/WX    TMP DP  RH WIND       PRES   REMARKS
BULLHEAD CITY  MOCLDY    50  41  71 CALM      29.76R
KINGMAN        CLOUDY    35  32  88 S7        29.71F WCI  29
$$

AZZ004>008-015-016-018-240400-
NORTH CENTRAL ARIZONA

CITY           SKY/WX    TMP DP  RH WIND       PRES   REMARKS
GRAND CANYON   LGT SNOW  25  25 100 SW5       29.68R VSB 1   WCI  19
WILLIAMS       LGT SNOW  28  27  93 W7        29.67F WCI  21
PRESCOTT       LGT SNOW  33  32  96 SW10      29.72S FOG     WCI  25
FLAGSTAFF      LGT SNOW  27  24  89 SW17G24   29.66F FOG     WCI  14
PAYSON         CLOUDY    37  32  81 SW8G22    29.74S WCI  31
PAGE           CLOUDY    40  24  53 SW3       29.64F
$$

AZZ009>014-017-240400-
NORTHEAST ARIZONA

CITY           SKY/WX    TMP DP  RH WIND       PRES   REMARKS
WINSLOW        MOCLDY    37  31  78 SW10      29.69F WCI  30
SAINT JOHNS    LGT RAIN  35 N/A N/A W10       29.70S WCI  27
SHOW LOW       LGT SNOW  32  30  93 SW9       29.72S VSB 3/4 WCI  24
$$

AZZ023-240400-
GREATER PHOENIX AREA

CITY           SKY/WX    TMP DP  RH WIND       PRES   REMARKS
PHOENIX        CLOUDY    56  47  71 W10       29.75R
BUCKEYE        CLOUDY    48  48 100 W12       29.81R
GLENDALE       RAIN      54  54 100 W12       29.80R
LUKE AFB       LGT RAIN  52  46  78 W15       29.78R
DEER VALLEY    LGT RAIN  51  49  92 W9        29.76R
SCOTTSDALE     LGT RAIN  51  48  89 VRB3      29.78R
MESA-FALCON    MOCLDY   N/A N/A N/A CALM      29.73S
MESA-GATEWAY   MOCLDY    54  48  82 SE5       29.76F
CHANDLER       CLOUDY    55  48  76 VRB5      29.76S
$$

AZZ027-028-240400-
SOUTHWEST MARICOPA COUNTY AND PINAL COUNTY

CITY           SKY/WX    TMP DP  RH WIND       PRES   REMARKS
CASA GRANDE    CLOUDY    52  45  77 SW8       29.78S
GILA BEND      LGT RAIN  51  44  75 W15G23    29.80R
$$

AZZ503-504-507>509-240400-
SOUTHEAST ARIZONA

CITY           SKY/WX    TMP DP  RH WIND       PRES   REMARKS
TUCSON         CLOUDY    57  40  52 SW14G24   29.80S
DAVIS-MONTHAN  MOCLDY    55  41  58 W14G24    29.79S
RYAN FIELD     CLEAR     55  39  54 SW20      29.80F
NOGALES        CLOUDY    52  42  69 SW18G26   29.83S
SIERRA VISTA   CLOUDY    53  37  55 SW22G39   29.80F
DOUGLAS        PTCLDY    56  31  38 SW20G26   29.80F
SAFFORD        CLOUDY    58  33  39 W13       29.70F
$$

AZZ020-021-025-026-031-240400-
SOUTHWEST ARIZONA

CITY           SKY/WX    TMP DP  RH WIND       PRES   REMARKS
YUMA           CLOUDY    53  42  66 NW7       29.83S
$$

CAZ031-033-041-043-047-048-061-240400-
SOUTHERN CALIFORNIA

CITY           SKY/WX    TMP DP  RH WIND       PRES   REMARKS
DOWNTOWN L.A.  PTCLDY    51  41  68 CALM      29.85R
L.A. AIRPORT   PTCLDY    52  41  66 NW5G20    29.86S
SAN DIEGO      MOCLDY    53  43  68 W12       29.92R
BURBANK        PTCLDY    47  39  74 NW3       29.84S
ONTARIO        HVY RAIN  44  42  93 VRB5      29.85R FOG
RIVERSIDE      LGT RAIN  47  42  83 W6        29.86R
PALM SPRINGS   PTCLDY    47  42  83 N5        29.82R
EL CENTRO NAS  PTCLDY    51  37  58 SW15      29.84F
IMPERIAL       PTCLDY    51  38  60 SW9       29.82F
BLYTHE         CLOUDY    53  41  63 SW20      29.78S
NEEDLES        MOCLDY    52  37  56 W12       29.74S
$$

NVZ020-UTZ003-240400-
SOUTHERN NEVADA-UTAH

CITY           SKY/WX    TMP DP  RH WIND       PRES   REMARKS
LAS VEGAS      CLOUDY    48  28  46 SW9       29.67R
SALT LAKE CITY CLOUDY    34  29  82 N3        29.61R
$$

NMZ009-TXZ055-240400-
NEW MEXICO-WEST TEXAS

CITY           SKY/WX    TMP DP  RH WIND       PRES   REMARKS
ALBUQUERQUE    CLOUDY    50  26  39 SW10      29.66F
EL PASO        CLEAR     56  26  31 S6        29.78F
$$


........................KEY........................
SKY/WX - SKY CONDITION/WEATHER
TMP    - TEMPERATURE IN FAHRENHEIT
DP     - DEW POINT IN FAHRENHEIT
RH     - RELATIVE HUMIDITY IN PERCENT
WIND   - DIRECTION AND SPEED IN MILES PER HOUR (MPH)
VRB    - VARIABLE WIND DIRECTION
PRES   - MEAN SEA LEVEL PRESSURE IN INCHES OF MERCURY
         F - FALLING PRESSURE   R - RISING PRESSURE
         S - STEADY PRESSURE
VSB    - VISIBILITY IN MILES
HX     - HEAT INDEX IN FAHRENHEIT
WCI    - WIND CHILL INDEX IN FAHRENHEIT
TC     - TEMPERATURE IN CELSIUS WHICH IS ALSO KNOWN AS
         TEMPERATURE IN CENTIGRADE
AFB    - AIR FORCE BASE
         LUKE AFB IS LUKE AIR FORCE BASE
         DAVIS-MONTHAN IS DAVIS-MONTHAN AIR FORCE BASE
NAS    - NAVAL AIR STATION
         EL CENTRO NAS IS EL CENTRO NAVAL AIR STATION
N/A    - NOT AVAILABLE





USA.gov is the U.S. government's official web portal to all federal, state and local government web resources and services.